Temperature
14 15 15 16 19 20 21 21 20 20 20 19 19 20 22 22 22 21 17 17 16 16 16 16 16 16 16 16 16 16 16 16 16 16 16 16 16 16 16 16 15 15 15 15 15 15 15 15 15
14 14 15 17 19 20 21 21 20 20 20 18 18 19 20 21 18 17 16 16 16 16 16 16 16 16 16 16 16 16 16 16 16 16 16 16 16 16 15 15 15 15 15 15 15 15 15 15 15
13 14 15 18 19 20 21 20 20 20 18 18 19 19 19 19 16 16 16 16 15 15 15 16 16 16 16 16 16 16 16 16 16 16 16 16 15 15 15 15 15 15 15 15 15 15 15 15 15
13 14 15 17 18 19 20 20 19 19 18 17 18 19 17 16 16 16 16 16 15 15 15 16 15 15 15 16 16 16 16 16 16 16 15 15 15 15 15 15 15 15 15 15 15 15 15 15 15
13 15 17 17 18 19 18 18 17 19 19 18 18 19 18 15 16 16 16 15 15 15 15 15 15 15 15 15 16 16 16 16 15 15 15 15 15 15 15 15 15 15 15 15 15 15 15 15 15
13 15 17 18 18 18 18 16 17 18 18 17 17 19 17 15 15 16 15 15 15 14 14 15 15 15 15 15 15 15 15 15 15 15 15 15 15 15 15 15 15 15 15 15 15 15 15 15 15
14 15 17 18 18 18 17 16 16 18 18 17 17 18 17 14 15 15 14 14 14 14 14 14 14 14 15 15 15 15 15 15 15 15 15 15 15 15 15 15 15 15 15 15 15 15 15 15 14
12 15 16 16 17 17 17 15 15 16 17 15 15 17 16 14 14 14 14 14 14 14 14 14 14 14 14 14 15 15 15 15 15 15 15 15 14 14 14 14 14 14 14 14 14 14 14 14 14
11 14 15 16 16 16 15 15 15 14 15 14 14 15 14 14 14 13 13 13 13 13 13 14 14 14 14 14 14 14 14 14 14 14 14 14 14 14 14 14 14 14 14 14 14 14 14 14 14
11 13 14 15 15 15 14 15 14 14 15 14 13 13 13 13 13 13 13 13 13 13 13 13 13 13 14 14 14 14 14 14 14 14 14 14 14 14 14 14 14 14 14 14 14 14 14 14 13
11 12 13 13 12 13 13 13 13 14 15 14 13 13 12 12 12 12 12 13 13 13 13 13 13 13 13 13 13 13 13 13 13 13 14 14 13 13 13 13 13 13 13 13 13 13 13 13 13
10 11 11 11 10 11 12 12 12 13 13 12 12 12 12 12 12 12 12 12 12 12 12 13 13 13 13 13 13 13 13 13 13 13 13 13 13 13 13 13 13 13 13 13 13 13 13 13 13
10 10 10 9 9 10 10 11 11 11 11 11 11 11 11 11 11 11 11 12 12 12 12 12 12 12 13 13 13 13 13 13 13 13 13 13 13 13 13 13 13 13 13 13 13 13 13 13 13
9 9 9 9 9 9 10 10 10 10 10 10 10 10 10 10 10 11 11 11 11 12 12 12 12 12 12 12 12 13 12 13 13 13 13 13 13 13 13 13 13 13 12 12 12 12 12 12 12
8 9 9 9 9 9 10 10 10 9 9 10 10 10 10 10 10 10 10 11 11 11 11 12 12 12 12 12 12 12 12 12 12 12 12 12 12 12 13 12 12 12 12 12 12 12 12 12 12
8 8 8 9 9 9 9 10 10 9 9 9 9 9 9 9 9 9 10 10 10 10 11 11 11 11 11 12 12 12 12 12 12 12 12 12 12 12 12 12 12 12 12 12 12 12 12 12 12
7 8 8 8 8 8 8 9 9 8 8 9 9 9 9 9 9 9 9 9 10 10 10 11 11 11 11 11 11 11 11 11 11 11 11 12 12 12 12 12 12 12 12 11 11 11 11 11 11
7 7 7 8 8 8 7 8 8 7 7 8 8 8 8 8 8 8 8 9 9 9 10 10 10 10 10 10 10 11 11 11 11 11 11 11 11 11 11 11 11 11 11 11 11 11 11 11 11
7 7 7 8 8 7 7 7 7 7 7 7 8 8 8 8 8 8 8 8 8 9 9 9 10 10 10 10 10 10 10 11 11 11 11 11 11 11 11 11 11 11 11 11 11 11 11 11 11
6 6 6 7 7 7 7 7 7 7 7 7 7 7 7 7 7 7 7 8 8 8 9 9 9 9 9 9 10 10 10 10 10 10 10 10 11 11 11 11 11 11 11 11 10 10 10 10 10
5 5 6 6 6 6 6 6 7 6 6 5 6 6 6 6 6 6 7 7 7 8 8 8 8 9 9 9 9 9 9 10 10 10 10 10 10 10 11 10 10 11 11 10 10 10 10 10 10
4 5 5 5 5 6 6 6 7 6 6 6 5 5 5 5 5 5 6 6 7 7 7 8 8 8 8 9 9 9 9 9 9 9 10 10 10 10 10 10 10 10 10 10 10 10 10 10 10
4 4 4 5 5 5 5 5 6 6 5 5 5 5 4 4 4 4 5 6 6 6 7 7 8 8 8 8 8 8 9 9 9 9 9 9 9 10 10 10 10 10 10 10 10 10 10 10 10
3 4 4 4 4 4 5 5 5 5 5 5 4 3 3 3 3 3 4 5 5 6 6 7 7 7 8 8 8 8 8 8 9 9 9 9 9 9 9 9 9 9 10 9 9 9 9 9 9
3 3 4 4 4 4 5 4 4 3 3 3 3 2 1 1 2 2 3 4 4 5 6 6 7 7 7 7 7 8 8 8 8 8 9 9 9 9 9 9 9 9 9 9 9 9 9 9 9
2 2 3 3 4 4 4 4 3 2 1 1 1 0 0 0 1 1 2 3 4 4 5 5 6 6 7 7 7 7 7 8 8 8 8 8 8 9 9 9 9 9 9 9 9 9 9 9 9
1 1 1 2 3 3 3 3 2 1 1 0 -0 -1 -1 -1 -0 0 1 2 3 3 4 5 5 6 6 7 7 7 7 7 7 8 8 8 8 8 8 8 8 8 8 8 8 8 8 8 8
1 1 1 1 2 3 3 2 2 0 -0 -0 -1 -1 -1 -1 -1 -1 0 1 2 3 3 4 5 5 6 6 6 7 7 7 7 7 7 7 8 8 8 8 8 8 8 8 8 8 8 8 8
-0 -0 -0 0 1 2 2 2 -1 -1 -1 -1 -2 -2 -2 -2 -2 -2 -1 0 1 2 3 3 4 4 5 6 6 6 6 6 7 7 7 7 7 7 7 7 7 8 8 8 8 8 8 8 7
-1 -1 -1 -0 -0 0 1 0 -2 -2 -2 -2 -2 -3 -3 -3 -3 -2 -2 -1 0 1 2 3 3 4 4 5 5 5 6 6 6 6 6 7 7 7 7 7 7 7 7 7 7 7 7 7 7
Wind_Speed
3 3 2 3 5 6 12 8 5 5 5 4 4 4 5 6 3 1 3 10 13 15 16 17 16 16 16 16 16 16 15 15 15 15 15 15 15 15 15 15 15 15 15 16 16 16 16 16 16
2 2 3 4 7 11 9 10 9 7 3 4 5 4 4 4 0 3 4 10 14 15 16 17 17 16 16 16 16 16 15 15 15 15 14 15 15 15 15 14 15 15 15 16 16 16 16 15 15
1 1 3 5 8 13 8 6 9 6 4 4 5 4 3 1 2 2 5 12 14 14 15 16 17 16 16 16 16 15 15 14 14 14 14 14 14 14 14 14 14 15 15 15 15 15 15 15 15
3 3 3 7 14 12 8 2 4 6 5 4 4 4 2 2 1 3 9 13 14 14 15 17 16 16 16 15 15 15 15 14 14 14 14 14 14 14 14 14 14 14 15 15 14 14 14 14 14
2 4 7 11 15 10 7 4 3 6 6 5 5 3 3 2 3 6 11 14 14 13 14 17 16 16 15 15 14 15 14 14 14 14 14 14 14 14 14 14 14 14 14 14 14 14 14 14 13
5 5 10 16 15 10 7 6 5 5 5 4 5 4 2 3 4 7 11 12 13 13 13 15 16 15 15 15 14 14 13 13 13 13 13 14 14 14 14 14 13 13 13 13 14 14 13 13 13
6 7 12 15 14 12 8 6 7 7 6 4 3 4 3 3 4 7 10 11 11 12 12 13 14 15 14 14 14 13 13 13 13 13 13 13 14 14 13 13 12 13 13 13 13 13 13 12 12
4 5 11 13 14 12 7 6 4 7 6 1 3 4 3 3 6 9 10 10 10 10 10 11 12 13 13 13 13 12 12 12 12 13 13 14 14 14 13 13 12 12 12 12 12 12 13 12 12
4 8 14 14 11 8 6 7 4 2 4 2 2 1 2 7 9 10 9 8 9 9 9 10 10 11 11 11 12 12 12 11 12 12 14 14 12 12 11 11 12 12 12 12 12 12 12 12 11
6 11 16 8 7 5 5 6 5 4 6 4 2 1 4 8 10 11 11 11 11 10 9 8 9 9 10 10 10 10 9 10 9 10 12 10 10 9 10 13 12 13 12 12 11 11 11 9 8
6 11 10 7 4 4 4 4 4 7 7 7 6 4 5 9 10 10 11 11 11 10 9 8 8 9 9 7 8 7 7 8 8 9 10 9 9 9 10 9 10 10 10 9 9 9 7 6 6
7 9 8 6 3 3 4 4 4 6 6 3 3 4 7 10 10 10 10 10 9 9 9 8 8 7 8 8 7 7 7 7 7 8 9 9 7 8 8 7 8 8 7 7 6 6 6 6 6
11 8 6 6 3 3 4 5 5 6 5 3 1 3 6 9 10 9 9 8 8 9 8 8 7 8 7 7 6 6 6 7 7 7 8 8 7 7 8 7 7 7 6 6 6 6 6 6 5
7 7 6 5 5 5 5 6 6 7 5 3 3 4 6 7 9 9 8 8 8 8 8 7 8 8 8 7 6 6 6 7 7 7 7 8 7 7 7 7 6 6 6 6 6 6 6 5 4
6 7 7 7 7 6 6 9 12 9 6 5 4 4 4 5 7 8 8 8 8 8 8 7 7 7 8 8 7 6 6 7 6 7 8 8 7 8 7 7 6 6 7 7 6 6 5 4 4
5 8 8 5 6 6 8 13 8 6 7 7 6 5 5 5 6 6 7 7 7 7 7 7 6 7 7 7 7 6 7 7 6 6 7 8 8 8 7 6 6 7 7 7 6 5 4 4 3
5 8 10 7 5 4 8 11 6 4 5 7 7 7 6 5 5 6 6 7 7 7 7 7 6 6 7 7 6 6 6 6 6 6 6 7 8 8 7 6 6 8 6 6 6 5 4 4 3
7 8 10 9 5 6 8 9 6 5 5 6 6 6 6 6 6 5 5 6 6 6 6 7 6 6 5 5 5 5 5 4 5 6 6 7 7 8 7 6 7 7 6 5 5 6 5 4 4
7 8 10 9 5 7 10 9 7 5 6 6 6 6 6 6 5 3 3 4 5 5 6 6 6 6 5 5 5 5 5 4 4 5 6 7 7 8 7 6 7 6 5 6 7 6 6 4 3
7 9 10 7 4 7 9 9 8 7 6 6 6 6 6 6 4 3 3 3 5 6 6 6 6 6 6 5 5 5 5 5 4 4 6 7 7 8 8 7 6 6 5 6 6 6 5 3 3
7 9 10 8 6 6 7 9 8 7 6 5 6 6 6 6 5 4 4 4 4 6 7 6 7 7 6 6 5 5 4 4 4 4 5 6 8 8 8 8 7 6 6 6 6 7 6 5 4
8 8 10 10 8 7 8 8 8 7 6 5 6 5 5 4 5 4 3 4 4 5 5 6 7 7 7 7 7 8 7 6 5 6 5 6 7 8 8 8 7 7 6 6 6 6 5 6 5
7 9 9 10 10 8 9 8 6 5 7 7 6 5 5 4 4 4 3 4 4 4 4 5 7 7 7 7 8 8 7 6 5 6 6 6 6 7 7 8 7 7 6 6 6 6 6 5 5
7 6 6 7 7 9 11 10 6 4 7 6 5 5 5 4 4 4 3 3 2 2 3 4 6 7 7 8 8 8 8 8 7 7 6 5 4 5 6 7 7 7 6 6 6 6 6 6 6
4 2 2 4 6 7 6 7 4 2 3 4 5 6 6 5 4 4 4 3 2 1 2 3 5 5 7 7 8 8 8 8 8 8 7 6 5 5 6 6 6 6 6 6 6 6 6 6 6
4 4 3 5 6 5 3 6 1 4 5 6 6 6 7 7 5 4 4 4 3 2 2 3 4 5 5 6 7 7 8 7 6 7 7 7 6 6 6 7 6 6 7 6 6 5 6 5 6
3 2 4 4 5 6 4 3 1 5 7 9 9 9 8 8 7 5 5 5 3 2 3 3 4 4 4 5 6 6 7 7 7 7 7 6 6 5 7 7 7 6 6 7 6 5 6 6 6
3 3 2 3 4 5 4 4 2 5 8 10 10 10 10 9 8 7 5 5 4 3 2 3 3 4 4 4 4 4 6 7 6 6 7 7 7 6 7 7 7 6 6 6 6 5 5 6 6
4 2 2 3 3 4 5 1 4 5 7 8 9 9 9 8 8 7 6 5 5 4 2 2 2 2 3 3 4 5 5 6 6 6 7 7 6 7 7 8 7 7 7 6 6 6 6 6 6
3 3 3 3 3 3 4 1 4 7 8 8 9 9 9 8 7 6 6 6 5 4 3 2 2 2 3 3 4 5 5 5 6 6 6 7 7 7 7 7 7 7 6 7 7 7 6 7 7
Wind_Direction
328 311 261 213 206 220 230 218 215 194 200 201 185 192 205 199 202 110 84 154 151 152 154 155 154 149 145 142 138 134 134 134 134 135 135 132 130 129 126 122 120 117 113 110 108 106 103 101 99
304 269 212 208 221 220 223 218 213 207 172 163 184 203 208 210 11 76 129 152 152 152 154 156 149 149 146 143 139 137 135 134 133 133 135 135 132 130 127 122 119 117 114 111 109 106 105 104 102
210 253 209 205 223 226 220 207 215 198 176 181 183 200 216 195 128 127 139 153 152 152 154 150 148 148 146 144 142 140 138 135 134 134 134 133 134 132 129 125 121 118 115 112 110 109 108 107 105
200 182 205 224 225 225 231 195 190 188 187 203 192 175 169 48 54 129 145 155 153 152 152 149 150 147 145 144 145 144 141 139 136 135 134 133 131 131 129 127 124 120 118 116 114 112 111 110 108
211 200 209 225 230 224 228 235 193 198 188 190 198 192 160 85 79 133 151 157 153 151 149 149 147 145 146 145 144 145 145 142 139 138 136 134 132 129 126 125 124 124 123 120 118 117 116 114 112
194 208 219 227 225 223 225 223 212 212 200 188 200 204 144 92 113 143 153 156 152 149 147 147 144 141 142 144 143 141 145 143 141 140 139 136 132 129 127 126 124 125 127 125 122 120 119 117 113
216 211 228 232 230 225 221 210 214 218 209 198 202 200 159 117 128 149 152 152 150 149 148 148 149 145 140 139 139 140 139 139 138 139 138 136 132 131 130 129 128 127 125 124 125 125 121 118 115
233 221 230 230 228 228 217 199 220 227 222 190 190 207 195 151 143 146 146 148 149 150 152 152 153 153 151 146 138 137 135 133 135 135 132 133 133 132 131 132 129 126 125 123 122 125 123 119 116
215 224 229 225 226 224 199 203 211 218 208 185 200 300 47 131 143 143 145 149 153 155 158 158 156 156 153 150 145 143 139 136 136 137 134 140 144 140 139 131 127 127 124 123 123 123 124 123 119
208 226 231 231 231 222 200 211 210 190 207 218 234 12 113 142 152 155 160 164 166 167 168 164 160 156 154 152 153 154 152 151 153 153 153 153 148 142 136 125 124 125 123 121 123 126 133 139 132
209 231 235 238 236 234 224 224 231 221 229 234 233 215 164 160 164 170 172 173 174 172 169 165 162 158 155 154 157 157 157 157 160 159 158 154 146 142 141 140 134 132 134 133 135 142 139 135 133
221 235 238 241 247 244 243 237 233 232 250 281 250 202 174 172 177 180 181 178 175 173 173 168 165 161 159 156 157 159 159 160 160 161 163 159 153 153 149 149 148 149 149 144 145 143 139 134 133
227 237 242 245 251 254 254 243 246 258 279 298 255 186 185 186 187 188 185 178 174 175 175 172 169 167 162 156 157 161 162 165 162 161 166 163 159 156 153 151 150 151 151 151 146 142 138 135 133
226 237 246 251 246 249 244 256 248 260 269 263 229 211 204 194 193 190 188 183 180 179 178 176 175 169 166 163 162 163 164 163 162 163 166 163 159 157 155 152 153 152 154 149 146 143 140 134 132
235 236 249 247 242 244 243 251 243 258 257 250 242 231 218 211 202 199 194 190 187 183 177 176 174 172 172 169 167 165 165 165 164 164 168 167 163 163 160 158 158 157 155 150 142 139 136 129 126
229 228 240 239 236 244 233 243 248 259 242 241 240 239 233 226 220 213 204 197 190 185 179 174 171 173 174 171 170 165 167 167 165 166 170 171 168 166 163 161 162 159 157 154 151 149 143 140 135
216 227 240 247 229 234 224 247 271 274 242 241 240 239 239 235 234 223 213 204 194 187 180 172 167 171 172 168 165 163 161 161 161 163 168 172 170 168 165 163 161 161 159 159 156 154 150 145 133
232 235 242 246 230 228 230 248 276 280 262 248 246 243 242 244 241 233 218 206 196 187 178 173 164 161 163 161 158 152 150 152 155 161 166 167 168 170 167 161 159 161 160 161 162 152 147 142 135
245 242 249 253 240 231 234 249 262 268 259 257 255 252 249 250 248 232 221 208 194 182 176 173 167 163 163 164 169 171 171 166 164 161 163 168 169 170 167 163 161 166 169 169 164 154 151 149 147
248 246 251 262 250 236 240 254 257 256 252 256 260 258 258 258 253 234 221 206 199 191 184 177 177 173 172 175 175 178 173 172 169 160 168 170 171 170 170 169 167 170 167 165 168 164 162 157 172
258 249 250 257 274 245 246 252 243 250 251 265 274 277 267 256 252 243 227 214 206 199 194 188 182 177 176 171 163 154 156 157 165 174 178 179 177 174 172 174 170 171 172 174 179 181 178 173 177
262 267 262 251 249 246 235 252 239 243 244 259 271 281 285 283 271 260 247 228 215 210 197 193 184 178 178 174 172 169 173 176 184 182 181 177 176 176 176 175 174 174 178 181 184 189 189 184 183
279 283 264 248 243 254 240 246 250 226 242 258 273 283 289 291 288 279 266 254 228 213 196 192 185 180 177 178 179 179 178 179 176 173 173 172 173 178 178 179 177 179 183 186 187 187 192 194 195
292 277 254 231 230 242 238 232 252 233 247 263 287 312 322 322 316 308 309 305 268 225 203 190 185 182 180 183 185 185 182 177 171 173 174 173 172 177 180 180 182 182 184 189 191 195 197 199 200
326 284 229 214 220 238 228 226 252 313 319 304 309 324 334 336 333 333 335 326 306 251 214 199 184 183 185 187 188 191 190 186 182 182 182 178 176 181 186 182 185 185 187 190 190 195 203 203 201
290 253 254 244 241 254 232 226 210 16 1 354 350 349 351 348 341 336 339 326 312 276 238 211 195 190 186 188 192 193 194 192 192 190 187 188 189 189 185 184 186 187 186 186 188 195 204 202 203
301 267 283 274 260 250 230 233 256 4 6 5 4 359 354 349 344 334 332 336 328 304 258 231 205 198 193 193 194 194 196 196 195 192 191 191 191 186 183 182 185 187 189 190 190 198 201 202 207
332 306 281 259 249 245 241 240 292 349 354 357 359 354 348 347 346 340 333 339 335 322 280 244 215 202 200 199 199 201 202 201 197 192 192 193 191 185 185 188 190 190 191 192 192 197 201 202 207
342 325 299 274 277 254 249 239 23 355 346 348 349 347 344 345 343 340 339 338 337 335 329 267 233 218 210 206 206 203 202 201 196 193 196 196 193 188 190 193 193 193 194 194 195 199 199 205 208
340 323 284 275 280 272 264 296 33 360 350 348 345 347 344 344 345 344 346 347 342 342 341 323 285 244 230 222 218 207 201 199 196 196 198 198 195 194 195 193 196 197 196 198 200 202 203 208 210
Height
1514 1515 1517 1520 1519 1514 1509 1506 1507 1509 1510 1512 1512 1512 1511 1511 1512 1517 1516 1515 1517 1520 1524 1527 1530 1533 1536 1538 1540 1541 1543 1545 1546 1547 1548 1550 1551 1552 1553 1554 1554 1555 1556 1556 1557 1558 1558 1558 1559
1514 1516 1519 1519 1513 1510 1506 1503 1507 1507 1509 1512 1513 1513 1512 1512 1514 1514 1513 1515 1518 1521 1524 1527 1530 1533 1536 1538 1540 1542 1544 1545 1547 1548 1549 1551 1552 1553 1554 1555 1556 1556 1557 1558 1559 1559 1560 1560 1560
1514 1515 1519 1514 1508 1503 1501 1502 1504 1508 1510 1511 1511 1512 1512 1513 1513 1513 1513 1515 1518 1522 1525 1527 1530 1533 1536 1538 1540 1542 1544 1546 1547 1549 1550 1551 1553 1554 1555 1556 1557 1558 1558 1559 1560 1561 1561 1562 1562
1514 1517 1517 1512 1504 1501 1501 1503 1506 1507 1510 1511 1511 1511 1512 1513 1513 1513 1513 1516 1519 1522 1525 1527 1531 1533 1536 1538 1540 1542 1544 1546 1548 1549 1551 1552 1553 1555 1556 1557 1558 1559 1560 1561 1561 1562 1563 1563 1564
1513 1514 1511 1507 1502 1501 1504 1506 1507 1505 1506 1509 1510 1509 1511 1511 1511 1511 1513 1516 1519 1522 1525 1528 1531 1534 1536 1538 1540 1543 1545 1546 1548 1550 1551 1552 1554 1555 1556 1558 1559 1560 1561 1562 1562 1563 1564 1564 1565
1513 1510 1505 1499 1497 1501 1504 1507 1507 1506 1506 1508 1509 1509 1510 1510 1510 1511 1514 1517 1520 1522 1525 1528 1531 1534 1536 1539 1541 1543 1545 1546 1548 1550 1551 1553 1554 1556 1557 1558 1559 1561 1562 1563 1563 1564 1565 1566 1566
1510 1505 1498 1494 1495 1498 1502 1506 1506 1505 1505 1507 1508 1508 1509 1510 1510 1511 1514 1517 1520 1523 1526 1528 1531 1534 1536 1539 1541 1543 1545 1546 1548 1550 1552 1553 1555 1556 1557 1559 1560 1561 1562 1563 1564 1565 1566 1567 1567
1507 1505 1498 1495 1495 1496 1501 1504 1505 1505 1505 1507 1508 1508 1508 1509 1509 1511 1514 1517 1520 1523 1525 1528 1531 1533 1536 1538 1540 1542 1544 1546 1548 1550 1552 1553 1555 1556 1558 1559 1561 1562 1563 1564 1565 1566 1567 1568 1569
1506 1504 1493 1492 1495 1496 1500 1502 1504 1505 1506 1507 1507 1508 1508 1508 1509 1511 1514 1517 1519 1522 1525 1527 1530 1532 1535 1537 1540 1542 1544 1546 1548 1549 1551 1553 1555 1556 1558 1559 1561 1562 1564 1565 1566 1567 1568 1569 1570
1504 1497 1490 1494 1496 1498 1500 1501 1503 1504 1504 1505 1506 1507 1507 1507 1508 1509 1511 1514 1517 1520 1523 1526 1529 1531 1534 1536 1539 1541 1543 1545 1547 1549 1551 1553 1554 1556 1557 1559 1561 1562 1564 1565 1567 1568 1569 1570 1571
1500 1494 1494 1498 1499 1500 1501 1502 1502 1501 1501 1503 1504 1505 1505 1506 1507 1509 1511 1513 1515 1518 1521 1524 1527 1530 1532 1535 1537 1540 1542 1544 1546 1548 1550 1551 1553 1555 1557 1559 1560 1562 1564 1566 1567 1568 1569 1571 1571
1498 1496 1498 1499 1500 1501 1501 1501 1502 1501 1502 1503 1504 1504 1504 1505 1506 1507 1509 1512 1514 1517 1519 1522 1525 1528 1530 1533 1536 1538 1540 1542 1544 1546 1548 1550 1552 1554 1556 1558 1560 1562 1563 1565 1567 1568 1569 1571 1572
1496 1496 1498 1499 1500 1501 1501 1501 1501 1501 1502 1502 1502 1503 1503 1504 1505 1507 1509 1511 1513 1515 1517 1520 1523 1526 1529 1531 1534 1536 1538 1541 1543 1544 1547 1549 1551 1553 1555 1557 1559 1561 1563 1565 1566 1568 1569 1570 1571
1496 1497 1498 1499 1499 1500 1500 1500 1501 1499 1501 1501 1501 1501 1502 1503 1504 1505 1507 1509 1510 1513 1516 1518 1521 1524 1527 1529 1532 1534 1537 1539 1541 1543 1545 1547 1550 1551 1553 1555 1557 1560 1562 1564 1565 1567 1568 1570 1571
1497 1497 1496 1496 1497 1498 1499 1497 1497 1498 1500 1499 1499 1500 1500 1501 1502 1503 1505 1506 1508 1511 1514 1516 1519 1522 1524 1527 1530 1532 1535 1537 1539 1541 1543 1546 1548 1550 1552 1554 1556 1558 1560 1562 1564 1566 1568 1569 1570
1496 1494 1492 1493 1496 1497 1498 1490 1493 1497 1497 1497 1498 1498 1499 1499 1500 1502 1503 1505 1507 1509 1512 1514 1517 1519 1522 1525 1528 1530 1533 1535 1537 1540 1542 1544 1546 1548 1550 1553 1555 1556 1559 1561 1563 1565 1567 1568 1570
1492 1489 1488 1491 1494 1495 1495 1491 1494 1495 1495 1495 1496 1496 1497 1498 1498 1499 1501 1503 1505 1507 1509 1511 1514 1517 1520 1523 1525 1528 1531 1533 1535 1538 1540 1542 1544 1547 1549 1551 1553 1555 1557 1559 1561 1564 1565 1567 1569
1488 1488 1487 1488 1492 1494 1493 1492 1495 1495 1495 1494 1494 1494 1495 1495 1496 1498 1499 1500 1502 1505 1507 1509 1512 1514 1517 1520 1523 1525 1528 1530 1533 1535 1538 1540 1542 1545 1547 1549 1551 1554 1556 1558 1560 1562 1564 1566 1568
1490 1489 1487 1488 1491 1492 1491 1492 1493 1494 1494 1492 1492 1492 1493 1493 1495 1496 1496 1498 1500 1502 1504 1506 1509 1511 1514 1517 1519 1522 1525 1527 1530 1533 1536 1538 1540 1543 1545 1547 1549 1552 1554 1556 1558 1560 1562 1564 1566
1491 1489 1488 1489 1491 1491 1490 1490 1491 1491 1492 1492 1491 1491 1491 1491 1492 1493 1494 1495 1497 1499 1501 1503 1506 1509 1512 1514 1517 1520 1522 1525 1528 1531 1533 1536 1538 1541 1543 1546 1547 1550 1552 1554 1556 1558 1560 1562 1565
1492 1490 1488 1490 1490 1490 1489 1485 1486 1488 1490 1490 1490 1490 1490 1490 1490 1490 1492 1493 1494 1496 1498 1501 1504 1506 1509 1512 1515 1517 1520 1523 1525 1528 1531 1533 1536 1538 1541 1543 1545 1548 1550 1552 1554 1556 1558 1560 1563
1491 1491 1490 1489 1488 1485 1487 1478 1479 1483 1485 1487 1488 1488 1488 1488 1488 1488 1489 1490 1492 1493 1496 1499 1501 1503 1507 1510 1512 1514 1516 1519 1521 1525 1528 1531 1533 1536 1538 1541 1543 1546 1548 1550 1552 1554 1556 1558 1560
1494 1492 1490 1487 1486 1485 1484 1481 1475 1481 1482 1484 1486 1486 1486 1486 1486 1486 1487 1488 1489 1492 1494 1496 1499 1501 1504 1506 1509 1512 1515 1517 1520 1522 1525 1528 1530 1533 1535 1538 1541 1543 1545 1547 1550 1552 1554 1556 1557
1496 1491 1487 1485 1484 1484 1480 1479 1474 1479 1481 1483 1485 1485 1485 1484 1484 1484 1485 1486 1487 1489 1491 1493 1496 1498 1501 1504 1507 1510 1512 1514 1517 1520 1522 1525 1527 1530 1532 1535 1538 1540 1542 1545 1547 1549 1551 1553 1555
1495 1491 1483 1480 1478 1474 1476 1478 1480 1484 1486 1486 1486 1485 1484 1483 1482 1482 1482 1483 1484 1485 1487 1490 1492 1495 1498 1501 1504 1506 1509 1512 1515 1517 1520 1522 1524 1527 1530 1532 1534 1537 1539 1542 1544 1546 1548 1550 1551
1497 1495 1488 1481 1473 1471 1478 1477 1482 1489 1489 1488 1487 1486 1484 1482 1481 1481 1481 1481 1482 1483 1485 1487 1489 1492 1495 1498 1501 1504 1507 1509 1512 1514 1517 1519 1522 1524 1527 1529 1531 1534 1536 1539 1541 1543 1545 1546 1548
1499 1496 1497 1491 1482 1479 1476 1479 1486 1489 1489 1488 1487 1485 1484 1482 1480 1480 1479 1479 1480 1481 1482 1484 1486 1489 1492 1495 1498 1501 1504 1506 1509 1511 1514 1517 1519 1522 1524 1526 1528 1531 1533 1535 1537 1539 1541 1543 1544
1505 1501 1497 1492 1482 1474 1474 1479 1483 1490 1490 1490 1488 1487 1485 1482 1480 1479 1478 1477 1478 1479 1480 1482 1484 1486 1489 1491 1494 1497 1500 1503 1505 1508 1510 1513 1516 1518 1521 1523 1525 1527 1530 1532 1533 1535 1537 1539 1540
1506 1505 1502 1496 1490 1480 1476 1483 1496 1497 1495 1493 1491 1488 1486 1483 1480 1478 1477 1476 1476 1477 1478 1479 1481 1483 1486 1488 1491 1494 1496 1499 1502 1504 1507 1510 1512 1515 1517 1519 1522 1524 1526 1528 1530 1532 1533 1535 1537
1510 1508 1505 1499 1495 1490 1483 1494 1500 1499 1497 1495 1492 1489 1486 1483 1481 1478 1476 1475 1475 1475 1475 1476 1478 1480 1482 1485 1487 1489 1492 1495 1498 1500 1503 1506 1509 1511 1513 1516 1518 1520 1522 1524 1526 1528 1529 1531 1532